Location: Unspecified
(51.0950°N, 12.9690°E)
Time: 18:23:49
(UTC+00:00)

BUGSAT 1 - Pass Details

Date: 13 May 2025
Orbit: 512 x 554 km, 98.1° (Epoch: 16 June)

Event Time Altitude Azimuth Distance (km) Brightness Sun altitude
Exits shadow 20:38:18 14° 187° (S) 1,529 ? -13.3°
Maximum altitude 20:41:23 48° 259° (W) 693 ? -13.6°
Drops below altitude 10° 20:45:04 10° 335° (NNW) 1,759 ? -13.9°
Sets 20:47:14 0° 341° (NNW) 2,648 ? -14.1°
